Location: Wald
(31.7579°N, 86.6655°W)
Time: 20:58:04
(UTC+00:00)

PSLV R/B - Pass Details

Date: 14 July 2020
Orbit: 595 x 628 km, 97.9° (Epoch: 13 August)

Event Time Altitude Azimuth Distance (km) Brightness Sun altitude
Rises 10:10:36 0° 360° (N) 2,892 7.5 -8.5°
Reaches altitude 10° 10:12:57 10° 351° (N) 1,988 6.5 -8.0°
Maximum altitude 10:16:48 33° 287° (WNW) 1,053 4.4 -7.3°
Drops below altitude 10° 10:20:41 10° 224° (SW) 1,991 5.5 -6.6°
Enters shadow 10:21:33 - 219° (SW) 2,313 5.9 -6.5°
